Wichita Falls, TX

4:13 AM CDT on August 24, 2017 (GMT -0500)
Sheppard Air Force Base-Wichita Falls Municipal

Weather History for KSPS - December, 2012

Change the Weather History Date:

Tuesday, December 25, 2012

  Actual Average Record
Temperature  
Mean Temperature 28 °F 41 °F  
Max Temperature 37 °F 53 °F 78 °F (2016)
Min Temperature 19 °F 30 °F 5 °F (1983)
Degree Days  
Heating Degree Days 37 24  
Month to date heating degree days 418 548  
Since 1 July heating degree days 842 1055  
Moisture  
Dew Point 22 °F    
Average Humidity 73    
Maximum Humidity 92    
Minimum Humidity 54    
Precipitation  
Precipitation 0.21 in 0.06 in 1.97 in (1987)
Month to date precipitation 0.45 1.35  
Year to date precipitation 19.66 28.65  
Snow  
Snow 2.50 in 0.00 in - ()
Month to date snowfall 3.5 0.7  
Since 1 July snowfall 3.5 1.0  
Snow Depth -    
Sea Level Pressure  
Sea Level Pressure 29.98 in    
Wind  
Wind Speed 20 mph (North)    
Max Wind Speed 32 mph    
Max Gust Speed 40 mph    
Visibility 4 miles    
Events Fog , Rain , Snow    
T = Trace of Precipitation, MM = Missing Value Source: NWS Daily Summary

Daily Weather History Graph

Daily Weather History Graph

Search for Another Location

Airport or City:

Trip Planner

Search our weather history database for the weather conditions in past years. The results will help you decide how hot, cold, wet, or windy it might be!

Date:

Astronomy

Dec. 25, 2012 Rise Set
Actual Time 7:37 AM CST 5:31 PM CST
Civil Twilight 7:09 AM CST 5:59 PM CST
Nautical Twilight 6:38 AM CST 6:30 PM CST
Astronomical Twilight 6:07 AM CST 7:00 PM CST
Moon 3:38 PM CST (12/25) 5:13 AM CST (12/25)
Length of Visible Light 10h 49m
Length of Day
9h 53m
Waxing Gibbous, 94% of the Moon is Illuminated
Dec 25
Waxing Gibbous
Dec 28
Full
Jan 4
Last Quarter
Jan 11
New
Jan 18
First Quarter

Hourly Weather History & Observations

Time (CST) Temp. Windchill Dew Point Humidity Pressure Visibility Wind Dir Wind Speed Gust Speed Precip Events Conditions
12:52 AM 37.0 °F 28.5 °F 23.0 °F 57% 29.82 in 8.0 mi ENE 13.8 mph 17.3 mph N/A   Overcast
1:52 AM 36.0 °F 26.3 °F 24.1 °F 62% 29.78 in 8.0 mi East 16.1 mph - 0.00 in   Clear
2:52 AM 36.0 °F 29.0 °F 28.0 °F 73% 29.78 in 6.0 mi NNE 9.2 mph - 0.00 in   Haze
3:52 AM 36.0 °F 28.0 °F 28.0 °F 73% 29.79 in 6.0 mi NNE 11.5 mph - N/A   Haze
4:52 AM 36.0 °F 25.3 °F 28.9 °F 76% 29.76 in 6.0 mi NNE 19.6 mph - N/A   Haze
5:52 AM 34.0 °F 22.4 °F 28.0 °F 79% 29.76 in 6.0 mi NNE 20.7 mph 28.8 mph N/A   Haze
6:35 AM 33.8 °F 21.9 °F 28.4 °F 81% 29.78 in 6.0 mi North 21.9 mph 32.2 mph N/A   Haze
6:52 AM 33.1 °F 20.6 °F 28.0 °F 82% 29.81 in 6.0 mi North 23.0 mph 27.6 mph N/A   Haze
7:23 AM 32.0 °F 18.4 °F 26.6 °F 80% 29.81 in 6.0 mi North 26.5 mph 32.2 mph N/A   Haze
7:52 AM 32.0 °F 19.8 °F 26.1 °F 79% 29.84 in 6.0 mi North 20.7 mph 27.6 mph N/A   Haze
8:52 AM 28.0 °F 12.3 °F 26.1 °F 92% 29.85 in 3.0 mi North 29.9 mph 36.8 mph 0.00 in Rain Light Freezing Rain
8:58 AM 28.4 °F 14.4 °F 26.6 °F 93% 29.83 in 2.5 mi North 23.0 mph 36.8 mph 0.01 in Rain Light Freezing Rain
9:09 AM 28.4 °F 13.8 °F 26.6 °F 93% 29.85 in 2.0 mi North 25.3 mph 36.8 mph 0.01 in Rain Light Freezing Rain
9:16 AM 28.4 °F 12.7 °F 26.6 °F 93% 29.85 in 2.0 mi North 29.9 mph 38.0 mph 0.02 in Snow Light Snow
9:29 AM 28.4 °F 13.3 °F 26.6 °F 93% 29.87 in 2.0 mi North 27.6 mph 34.5 mph 0.03 in Rain Light Freezing Rain
9:48 AM 26.6 °F 11.1 °F 24.8 °F 93% 29.88 in 1.8 mi North 26.5 mph 34.5 mph 0.06 in Rain Light Freezing Rain
9:52 AM 27.0 °F 11.6 °F 25.0 °F 92% 29.91 in 1.8 mi North 26.5 mph 33.4 mph 0.06 in Rain Light Freezing Rain
10:07 AM 26.6 °F 11.4 °F 24.8 °F 93% 29.89 in 1.8 mi North 25.3 mph 35.7 mph 0.02 in   Overcast
10:14 AM 26.6 °F 10.6 °F 24.8 °F 93% 29.90 in 2.0 mi North 28.8 mph 36.8 mph 0.03 in   Overcast
10:22 AM 26.6 °F 11.4 °F 24.8 °F 93% 29.90 in 2.0 mi North 25.3 mph 35.7 mph 0.04 in   Overcast
10:31 AM 26.6 °F 10.8 °F 23.0 °F 86% 29.91 in 1.8 mi North 27.6 mph 34.5 mph 0.04 in   Overcast
10:52 AM 25.0 °F 8.9 °F 23.0 °F 92% 29.95 in 2.0 mi North 26.5 mph 33.4 mph 0.06 in   Overcast
11:01 AM 24.8 °F 8.4 °F 23.0 °F 93% 29.93 in 1.5 mi North 27.6 mph 34.5 mph 0.01 in Snow Light Snow
11:18 AM 24.8 °F 9.3 °F 23.0 °F 93% 29.94 in 0.5 mi North 24.2 mph 33.4 mph 0.01 in Fog , Snow Snow
11:29 AM 24.8 °F 8.1 °F 21.2 °F 86% 29.95 in 0.2 mi North 28.8 mph 36.8 mph 0.02 in Fog Light Freezing Fog
11:38 AM 24.8 °F 8.4 °F 21.2 °F 86% 29.95 in 0.2 mi North 27.6 mph 36.8 mph 0.03 in Fog Light Freezing Fog
11:52 AM 24.1 °F 8.0 °F 23.0 °F 96% 29.98 in 0.2 mi North 25.3 mph 33.4 mph 0.03 in Fog Light Freezing Fog
12:43 PM 24.8 °F 9.0 °F 21.2 °F 86% 29.97 in 0.5 mi North 25.3 mph 40.3 mph 0.03 in Fog Light Freezing Fog
12:52 PM 24.1 °F 9.0 °F 21.9 °F 91% 30.00 in 0.5 mi NNW 21.9 mph 33.4 mph 0.03 in Fog Light Freezing Fog
12:59 PM 24.8 °F 8.4 °F 21.2 °F 86% 29.98 in 0.5 mi North 27.6 mph 35.7 mph 0.01 in Fog Light Freezing Fog
1:52 PM 24.1 °F 8.3 °F 21.0 °F 88% 30.02 in 0.5 mi NNW 24.2 mph - 0.02 in Fog Light Freezing Fog
2:09 PM 24.8 °F 9.0 °F 21.2 °F 86% 30.00 in 0.8 mi North 25.3 mph 33.4 mph N/A   Overcast
2:26 PM 24.8 °F 9.6 °F 21.2 °F 86% 30.00 in 0.5 mi North 23.0 mph 32.2 mph N/A Fog Light Freezing Fog
2:36 PM 24.8 °F 10.0 °F 21.2 °F 86% 30.00 in 0.5 mi NNW 21.9 mph 31.1 mph N/A Fog Light Freezing Fog
2:48 PM 24.8 °F 9.0 °F 21.2 °F 86% 30.01 in 0.8 mi North 25.3 mph - N/A   Overcast
2:52 PM 24.1 °F 8.7 °F 21.0 °F 88% 30.04 in 0.8 mi North 23.0 mph - N/A   Overcast
3:10 PM 24.8 °F 8.1 °F 21.2 °F 86% 30.02 in 1.0 mi North 28.8 mph 32.2 mph N/A   Overcast
3:34 PM 24.8 °F 10.0 °F 21.2 °F 86% 30.03 in 2.0 mi NNW 21.9 mph - N/A   Overcast
3:52 PM 25.0 °F 9.2 °F 21.0 °F 85% 30.06 in 2.5 mi North 25.3 mph 31.1 mph N/A   Overcast
4:03 PM 24.8 °F 8.1 °F 21.2 °F 86% 30.04 in 4.0 mi North 28.8 mph 33.4 mph N/A   Overcast
4:52 PM 24.1 °F 10.1 °F 19.9 °F 84% 30.10 in 3.0 mi North 18.4 mph - N/A   Overcast
5:52 PM 24.1 °F 8.3 °F 19.0 °F 81% 30.14 in 9.0 mi North 24.2 mph 31.1 mph N/A   Overcast
6:52 PM 24.1 °F 11.0 °F 18.0 °F 77% 30.16 in 10.0 mi NNW 16.1 mph - N/A   Overcast
7:52 PM 25.0 °F 11.3 °F 17.1 °F 72% 30.18 in 10.0 mi NNW 18.4 mph - N/A   Overcast
8:23 PM 24.8 °F 11.1 °F 15.8 °F 69% 30.18 in 10.0 mi NNW 18.4 mph 24.2 mph N/A   Overcast
8:52 PM 24.1 °F 10.6 °F 16.0 °F 71% 30.23 in 10.0 mi NNW 17.3 mph - N/A   Overcast
9:52 PM 19.9 °F 4.8 °F 14.0 °F 78% 30.25 in 10.0 mi NNW 18.4 mph - N/A   Partly Cloudy
10:52 PM 19.0 °F 5.6 °F 12.0 °F 74% 30.28 in 10.0 mi NNW 13.8 mph - 0.01 in   Clear
11:15 PM 19.4 °F 5.5 °F 10.4 °F 68% 30.25 in 10.0 mi NNW 15.0 mph - N/A   Mostly Cloudy
11:52 PM 19.0 °F 4.5 °F 12.0 °F 74% 30.29 in 10.0 mi NNW 16.1 mph - N/A   Overcast